(°C)
12°
13°
13°
12°
12°
11°
10°
(°C)
ESE
ESE
SE
SSE
SE
ESE
ESE
(km/h)
24-36
24-35
24-37
25-36
22-34
21-41
22-39
(mm)
0
0
0
0
0
1.3
1.3
(%)
8
1
15
24
53
88
87

Wysokość słońca

/ 26.3°
sun-icon
UV 1
06:26
18:36
Ubywający Księżyc garbaty (220°)
19:51
10:03

METAR dla 53.5°N 50.15°E (UWWW)

Czas Warunki Temperatura/
Punkt rosy
Wiatr Widzialność Pogoda Chmury Ciśn. atm. Zmień Surowy
VFR 12°C / 3°C 160º 17kt >10km - Scattered Clouds 3300ft 1014 No Significant change. Runway 15: Damp, 51-100% contamination with <1mm, friction coefficient 0.55. UWWW 240530Z 16009MPS 9999 SCT033 12/03 Q1014 R15/190055 NOSIG RMK QFE749/0999
VFR 12°C / 3°C 160º 17kt >10km - Scattered Clouds 3300ft 1014 No Significant change. Runway 15: Damp, 51-100% contamination with <1mm, friction coefficient 0.55. UWWW 240500Z 16009MPS 9999 SCT033 12/03 Q1014 R15/190055 NOSIG RMK QFE749/0999
VFR 11°C / 3°C 160º 17kt >10km - Scattered Clouds 3300ft 1014 No Significant change. Runway 15: Damp, 51-100% contamination with <1mm, friction coefficient 0.55. UWWW 240430Z 16009MPS 9999 SCT033 11/03 Q1014 R15/190055 NOSIG RMK QFE749/0999
VFR 12°C / 3°C 160º 16kt >10km - Scattered Clouds 3300ft 1014 No Significant change. Runway 15: Damp, 51-100% contamination with <1mm, friction coefficient 0.55. UWWW 240400Z 16008MPS 9999 SCT033 12/03 Q1014 R15/190055 NOSIG RMK QFE749/0999
VFR 11°C / 3°C 150º 16kt >10km - Scattered Clouds 3300ft 1014 No Significant change. Runway 15: Damp, 51-100% contamination with <1mm, friction coefficient 0.55. UWWW 240330Z 15008MPS 9999 SCT033 11/03 Q1014 R15/190055 NOSIG RMK QFE749/0999
VFR 11°C / 3°C 160º 16kt >10km - Scattered Clouds 3300ft 1014 No Significant change. Runway 15: Damp, 51-100% contamination with <1mm, friction coefficient 0.55. UWWW 240300Z 16008MPS 9999 SCT033 11/03 Q1014 R15/190055 NOSIG RMK QFE749/0999
VFR 11°C / 4°C 160º 16kt >10km - Scattered Clouds 3300ft 1014 No Significant change. Runway 15: Damp, 51-100% contamination with <1mm, friction coefficient 0.55. UWWW 240230Z 16008MPS 9999 SCT033 11/04 Q1014 R15/190055 NOSIG RMK QFE749/0999
VFR 11°C / 4°C 140º 19kt >10km - Scattered Clouds 3300ft 1014 No Significant change. Runway 15: Wet or puddles, 51-100% contamination with 1mm, friction coefficient 0.50. UWWW 240200Z 14010MPS 9999 SCT033 11/04 Q1014 R15/290150 NOSIG RMK QFE749/0999
VFR 11°C / 4°C 140º 17kt >10km - Scattered Clouds 3300ft 1014 No Significant change. Runway 15: Wet or puddles, 51-100% contamination with 1mm, friction coefficient 0.50. UWWW 240130Z 14009MPS 9999 SCT033 11/04 Q1014 R15/290150 NOSIG RMK QFE749/0999
VFR 11°C / 5°C 140º 19kt >10km - Scattered Clouds 3300ft 1014 No Significant change. Runway 15: Wet or puddles, 51-100% contamination with 1mm, friction coefficient 0.50. UWWW 240100Z 14010MPS 9999 SCT033 11/05 Q1014 R15/290150 NOSIG RMK QFE749/0998
VFR 11°C / 5°C 140º 17kt >10km - Scattered Clouds 3300ft 1014 No Significant change. Runway 15: Wet or puddles, 51-100% contamination with 1mm, friction coefficient 0.50. UWWW 240030Z 14009MPS 9999 SCT033 11/05 Q1014 R15/290150 NOSIG RMK QFE749/0998
VFR 11°C / 6°C 140º 19kt Gust 29kt >10km - Scattered Clouds 3300ft 1014 No Significant change. Runway 15: Wet or puddles, 51-100% contamination with 1mm, friction coefficient 0.50. UWWW 240000Z 14010G15MPS 9999 SCT033 11/06 Q1014 R15/290150 NOSIG RMK QFE749/0999
VFR 10°C / 6°C 130º 19kt >10km - Scattered Clouds 3300ft 1014 No Significant change. Runway 15: Wet or puddles, 51-100% contamination with 1mm, friction coefficient 0.50. UWWW 232330Z 13010MPS 9999 SCT033 10/06 Q1014 R15/290150 NOSIG RMK QFE749/0999
VFR 10°C / 7°C 130º 17kt >10km - Scattered Clouds 3300ft 1014 No Significant change. Runway 15: Wet or puddles, 51-100% contamination with 1mm, friction coefficient 0.50. UWWW 232300Z 13009MPS 9999 SCT033 10/07 Q1014 R15/290150 NOSIG RMK QFE749/0999
VFR 10°C / 7°C 130º 19kt >10km - Scattered Clouds 3300ft 1015 No Significant change. Runway 15: Wet or puddles, 51-100% contamination with 1mm, friction coefficient 0.50. UWWW 232230Z 13010MPS 9999 SCT033 10/07 Q1015 R15/290150 NOSIG RMK QFE749/0999
VFR 10°C / 7°C 130º 14kt >10km Light Rain 1.00mm precipitation Vertical Visibility of 0ft. 1016 No Significant change. Runway 15: Wet or puddles, 51-100% contamination with 1mm, friction coefficient 0.50. UWWW 232200Z 13007MPS 9999 -RA SCT026 10/07 Q1016 R15/290150 NOSIG RMK QFE750/1000
VFR 10°C / 7°C 140º 12kt >10km - Scattered Clouds 2600ft 1016 No Significant change. Runway 15: Wet or puddles, 51-100% contamination with 1mm, friction coefficient 0.50. UWWW 232130Z 14006MPS 9999 SCT026 10/07 Q1016 R15/290150 NOSIG RMK QFE750/1001
VFR 10°C / 7°C 150º 16kt >10km Light Rain 1.00mm precipitation Vertical Visibility of 0ft. 1016 No Significant change. Runway 15: Wet or puddles, 51-100% contamination with 1mm, friction coefficient 0.50. UWWW 232100Z 15008MPS 9999 -RA SCT033 10/07 Q1016 R15/290150 NOSIG RMK QFE750/1001
VFR 10°C / 7°C 150º variable 120º to 190º 10kt Gust 19kt >10km Light Rain 1.00mm precipitation Vertical Visibility of 0ft. 1016 No Significant change. Runway 15: Wet or puddles, 51-100% contamination with 1mm, friction coefficient 0.50. UWWW 232030Z 15005G10MPS 120V190 9999 -RA SCT033 10/07 Q1016 R15/290150 NOSIG RMK QFE751/1001
VFR 9°C / 7°C 110º 10kt >10km Light Rain 1.00mm precipitation Vertical Visibility of 0ft. 1016 No Significant change. Runway 15: Wet or puddles, 51-100% contamination with 1mm, friction coefficient 0.50. UWWW 232000Z 11005MPS 9999 -RA SCT033 09/07 Q1016 R15/290150 NOSIG RMK QFE751/1001
VFR 9°C / 7°C 110º variable 090º to 150º 10kt >10km Light Rain 1.00mm precipitation Vertical Visibility of 0ft. 1017 No Significant change. Runway 15: Wet or puddles, 51-100% contamination with 1mm, friction coefficient 0.50. UWWW 231930Z 11005MPS 090V150 9999 -RA SCT033 09/07 Q1017 R15/290150 NOSIG RMK QFE751/1002
VFR 10°C / 6°C 150º 10kt >10km Light Rain 1.00mm precipitation Vertical Visibility of 0ft. 1017 No Significant change. Runway 15: Wet or puddles, 51-100% contamination with 1mm, friction coefficient 0.50. UWWW 231900Z 15005MPS 9999 -RA SCT033 10/06 Q1017 R15/290150 NOSIG RMK QFE751/1002
VFR 9°C / 6°C 150º 4kt >10km Light Rain 1.00mm precipitation Vertical Visibility of 0ft. 1018 No Significant change. Runway 15: Wet or puddles, 51-100% contamination with 1mm, friction coefficient 0.50. UWWW 231830Z 15002MPS 9999 -RA SCT033 09/06 Q1018 R15/290150 NOSIG RMK QFE752/1002
VFR 10°C / 6°C 80º 6kt >10km Light Rain 1.00mm precipitation Vertical Visibility of 0ft. 1017 No Significant change. Runway 15: Wet or puddles, 51-100% contamination with 1mm, friction coefficient 0.50. UWWW 231800Z 08003MPS 9999 -RA SCT033 10/06 Q1017 R15/290150 NOSIG RMK QFE751/1002

VFR

12°C / 3°C

[Więcej]
Wiatr 160º 17kt
Widzialność >10km
Pogoda -
Chmury Scattered Clouds 3300ft
Ciśn. atm. 1014
Zmień No Significant change. Runway 15: Damp, 51-100% contamination with <1mm, friction coefficient 0.55.
Surowy UWWW 240530Z 16009MPS 9999 SCT033 12/03 Q1014 R15/190055 NOSIG RMK QFE749/0999

VFR

12°C / 3°C

[Więcej]
Wiatr 160º 17kt
Widzialność >10km
Pogoda -
Chmury Scattered Clouds 3300ft
Ciśn. atm. 1014
Zmień No Significant change. Runway 15: Damp, 51-100% contamination with <1mm, friction coefficient 0.55.
Surowy UWWW 240500Z 16009MPS 9999 SCT033 12/03 Q1014 R15/190055 NOSIG RMK QFE749/0999

VFR

11°C / 3°C

[Więcej]
Wiatr 160º 17kt
Widzialność >10km
Pogoda -
Chmury Scattered Clouds 3300ft
Ciśn. atm. 1014
Zmień No Significant change. Runway 15: Damp, 51-100% contamination with <1mm, friction coefficient 0.55.
Surowy UWWW 240430Z 16009MPS 9999 SCT033 11/03 Q1014 R15/190055 NOSIG RMK QFE749/0999

VFR

12°C / 3°C

[Więcej]
Wiatr 160º 16kt
Widzialność >10km
Pogoda -
Chmury Scattered Clouds 3300ft
Ciśn. atm. 1014
Zmień No Significant change. Runway 15: Damp, 51-100% contamination with <1mm, friction coefficient 0.55.
Surowy UWWW 240400Z 16008MPS 9999 SCT033 12/03 Q1014 R15/190055 NOSIG RMK QFE749/0999

VFR

11°C / 3°C

[Więcej]
Wiatr 150º 16kt
Widzialność >10km
Pogoda -
Chmury Scattered Clouds 3300ft
Ciśn. atm. 1014
Zmień No Significant change. Runway 15: Damp, 51-100% contamination with <1mm, friction coefficient 0.55.
Surowy UWWW 240330Z 15008MPS 9999 SCT033 11/03 Q1014 R15/190055 NOSIG RMK QFE749/0999

VFR

11°C / 3°C

[Więcej]
Wiatr 160º 16kt
Widzialność >10km
Pogoda -
Chmury Scattered Clouds 3300ft
Ciśn. atm. 1014
Zmień No Significant change. Runway 15: Damp, 51-100% contamination with <1mm, friction coefficient 0.55.
Surowy UWWW 240300Z 16008MPS 9999 SCT033 11/03 Q1014 R15/190055 NOSIG RMK QFE749/0999

VFR

11°C / 4°C

[Więcej]
Wiatr 160º 16kt
Widzialność >10km
Pogoda -
Chmury Scattered Clouds 3300ft
Ciśn. atm. 1014
Zmień No Significant change. Runway 15: Damp, 51-100% contamination with <1mm, friction coefficient 0.55.
Surowy UWWW 240230Z 16008MPS 9999 SCT033 11/04 Q1014 R15/190055 NOSIG RMK QFE749/0999

VFR

11°C / 4°C

[Więcej]
Wiatr 140º 19kt
Widzialność >10km
Pogoda -
Chmury Scattered Clouds 3300ft
Ciśn. atm. 1014
Zmień No Significant change. Runway 15: Wet or puddles, 51-100% contamination with 1mm, friction coefficient 0.50.
Surowy UWWW 240200Z 14010MPS 9999 SCT033 11/04 Q1014 R15/290150 NOSIG RMK QFE749/0999

VFR

11°C / 4°C

[Więcej]
Wiatr 140º 17kt
Widzialność >10km
Pogoda -
Chmury Scattered Clouds 3300ft
Ciśn. atm. 1014
Zmień No Significant change. Runway 15: Wet or puddles, 51-100% contamination with 1mm, friction coefficient 0.50.
Surowy UWWW 240130Z 14009MPS 9999 SCT033 11/04 Q1014 R15/290150 NOSIG RMK QFE749/0999

VFR

11°C / 5°C

[Więcej]
Wiatr 140º 19kt
Widzialność >10km
Pogoda -
Chmury Scattered Clouds 3300ft
Ciśn. atm. 1014
Zmień No Significant change. Runway 15: Wet or puddles, 51-100% contamination with 1mm, friction coefficient 0.50.
Surowy UWWW 240100Z 14010MPS 9999 SCT033 11/05 Q1014 R15/290150 NOSIG RMK QFE749/0998

VFR

11°C / 5°C

[Więcej]
Wiatr 140º 17kt
Widzialność >10km
Pogoda -
Chmury Scattered Clouds 3300ft
Ciśn. atm. 1014
Zmień No Significant change. Runway 15: Wet or puddles, 51-100% contamination with 1mm, friction coefficient 0.50.
Surowy UWWW 240030Z 14009MPS 9999 SCT033 11/05 Q1014 R15/290150 NOSIG RMK QFE749/0998

VFR

11°C / 6°C

[Więcej]
Wiatr 140º 19kt Gust 29kt
Widzialność >10km
Pogoda -
Chmury Scattered Clouds 3300ft
Ciśn. atm. 1014
Zmień No Significant change. Runway 15: Wet or puddles, 51-100% contamination with 1mm, friction coefficient 0.50.
Surowy UWWW 240000Z 14010G15MPS 9999 SCT033 11/06 Q1014 R15/290150 NOSIG RMK QFE749/0999

VFR

10°C / 6°C

[Więcej]
Wiatr 130º 19kt
Widzialność >10km
Pogoda -
Chmury Scattered Clouds 3300ft
Ciśn. atm. 1014
Zmień No Significant change. Runway 15: Wet or puddles, 51-100% contamination with 1mm, friction coefficient 0.50.
Surowy UWWW 232330Z 13010MPS 9999 SCT033 10/06 Q1014 R15/290150 NOSIG RMK QFE749/0999

VFR

10°C / 7°C

[Więcej]
Wiatr 130º 17kt
Widzialność >10km
Pogoda -
Chmury Scattered Clouds 3300ft
Ciśn. atm. 1014
Zmień No Significant change. Runway 15: Wet or puddles, 51-100% contamination with 1mm, friction coefficient 0.50.
Surowy UWWW 232300Z 13009MPS 9999 SCT033 10/07 Q1014 R15/290150 NOSIG RMK QFE749/0999

VFR

10°C / 7°C

[Więcej]
Wiatr 130º 19kt
Widzialność >10km
Pogoda -
Chmury Scattered Clouds 3300ft
Ciśn. atm. 1015
Zmień No Significant change. Runway 15: Wet or puddles, 51-100% contamination with 1mm, friction coefficient 0.50.
Surowy UWWW 232230Z 13010MPS 9999 SCT033 10/07 Q1015 R15/290150 NOSIG RMK QFE749/0999

VFR

10°C / 7°C

[Więcej]
Wiatr 130º 14kt
Widzialność >10km
Pogoda Light Rain 1.00mm precipitation
Chmury Vertical Visibility of 0ft.
Ciśn. atm. 1016
Zmień No Significant change. Runway 15: Wet or puddles, 51-100% contamination with 1mm, friction coefficient 0.50.
Surowy UWWW 232200Z 13007MPS 9999 -RA SCT026 10/07 Q1016 R15/290150 NOSIG RMK QFE750/1000

VFR

10°C / 7°C

[Więcej]
Wiatr 140º 12kt
Widzialność >10km
Pogoda -
Chmury Scattered Clouds 2600ft
Ciśn. atm. 1016
Zmień No Significant change. Runway 15: Wet or puddles, 51-100% contamination with 1mm, friction coefficient 0.50.
Surowy UWWW 232130Z 14006MPS 9999 SCT026 10/07 Q1016 R15/290150 NOSIG RMK QFE750/1001

VFR

10°C / 7°C

[Więcej]
Wiatr 150º 16kt
Widzialność >10km
Pogoda Light Rain 1.00mm precipitation
Chmury Vertical Visibility of 0ft.
Ciśn. atm. 1016
Zmień No Significant change. Runway 15: Wet or puddles, 51-100% contamination with 1mm, friction coefficient 0.50.
Surowy UWWW 232100Z 15008MPS 9999 -RA SCT033 10/07 Q1016 R15/290150 NOSIG RMK QFE750/1001

VFR

10°C / 7°C

[Więcej]
Wiatr 150º variable 120º to 190º 10kt Gust 19kt
Widzialność >10km
Pogoda Light Rain 1.00mm precipitation
Chmury Vertical Visibility of 0ft.
Ciśn. atm. 1016
Zmień No Significant change. Runway 15: Wet or puddles, 51-100% contamination with 1mm, friction coefficient 0.50.
Surowy UWWW 232030Z 15005G10MPS 120V190 9999 -RA SCT033 10/07 Q1016 R15/290150 NOSIG RMK QFE751/1001

VFR

9°C / 7°C

[Więcej]
Wiatr 110º 10kt
Widzialność >10km
Pogoda Light Rain 1.00mm precipitation
Chmury Vertical Visibility of 0ft.
Ciśn. atm. 1016
Zmień No Significant change. Runway 15: Wet or puddles, 51-100% contamination with 1mm, friction coefficient 0.50.
Surowy UWWW 232000Z 11005MPS 9999 -RA SCT033 09/07 Q1016 R15/290150 NOSIG RMK QFE751/1001

VFR

9°C / 7°C

[Więcej]
Wiatr 110º variable 090º to 150º 10kt
Widzialność >10km
Pogoda Light Rain 1.00mm precipitation
Chmury Vertical Visibility of 0ft.
Ciśn. atm. 1017
Zmień No Significant change. Runway 15: Wet or puddles, 51-100% contamination with 1mm, friction coefficient 0.50.
Surowy UWWW 231930Z 11005MPS 090V150 9999 -RA SCT033 09/07 Q1017 R15/290150 NOSIG RMK QFE751/1002

VFR

10°C / 6°C

[Więcej]
Wiatr 150º 10kt
Widzialność >10km
Pogoda Light Rain 1.00mm precipitation
Chmury Vertical Visibility of 0ft.
Ciśn. atm. 1017
Zmień No Significant change. Runway 15: Wet or puddles, 51-100% contamination with 1mm, friction coefficient 0.50.
Surowy UWWW 231900Z 15005MPS 9999 -RA SCT033 10/06 Q1017 R15/290150 NOSIG RMK QFE751/1002

VFR

9°C / 6°C

[Więcej]
Wiatr 150º 4kt
Widzialność >10km
Pogoda Light Rain 1.00mm precipitation
Chmury Vertical Visibility of 0ft.
Ciśn. atm. 1018
Zmień No Significant change. Runway 15: Wet or puddles, 51-100% contamination with 1mm, friction coefficient 0.50.
Surowy UWWW 231830Z 15002MPS 9999 -RA SCT033 09/06 Q1018 R15/290150 NOSIG RMK QFE752/1002

VFR

10°C / 6°C

[Więcej]
Wiatr 80º 6kt
Widzialność >10km
Pogoda Light Rain 1.00mm precipitation
Chmury Vertical Visibility of 0ft.
Ciśn. atm. 1017
Zmień No Significant change. Runway 15: Wet or puddles, 51-100% contamination with 1mm, friction coefficient 0.50.
Surowy UWWW 231800Z 08003MPS 9999 -RA SCT033 10/06 Q1017 R15/290150 NOSIG RMK QFE751/1002

TAF dla 53.5°N 50.15°E (UWWW)

From till


Maximum Temperature 14ºC on . Minimum Temperature 8ºC on .
From till Wind 150º 19kt. Gust 31kt. Visibility 6000m. Light Rain . Broken Clouds 1600ft.
Temporarly from till Visibility 2000m. Showers Rain . Broken Clouds 500ft. Broken Clouds 2000ft.
Becoming from till Wind 100º 6kt. Gust 17kt. Visibility 6000m. Light Rain . Broken Clouds 1600ft.
Temporarly from till Wind 60º 14kt. Visibility 2000m. Rain Mist . Overcast 400ft.

Surowy: TAF UWWW 240458Z 2406/2506 15010G16MPS 6000 -RA BKN016 TX14/2410Z TN08/2501Z TEMPO 2406/2414 2000 SHRA BKN005 BKN020CB BECMG 2414/2415 10003G09MPS TEMPO 2415/2506 06007MPS 2000 RA BR OVC004

Aktualne zdjęcia satelitarne i zdjęcia opadów deszczu dla 53.5°N 50.15°E

Wskaźnik lokalizacji znajduje się na 53.5°N 50.15°E. [Więcej]

Obraz satelitarny w czasie rzeczywistym łączy światło widzialne w ciągu dnia z promieniowaniem podczerwonym w nocy. W nocy obraz nie jest ciemny, ponieważ promieniowanie podczerwone może wykrywać różnice temperatur. Niestety niskie chmury i mgłę trudno odróżnić od temperatury gruntu, przez co mogą być prawie niewidoczne w nocy. Zdjęcia satelitarne Meteosat dla Europy są aktualizowane w czasie rzeczywistym co 5 minut. Obrazy GOES-16/GOES-17 (Ameryka Północna i Południowa) oraz Himawari (Azja) są aktualizowane co 10 minut.

Prawa autorskie 2021 EUMETSAT / meteoblue. / Prawa autorskie 2021 meteoblue

Radar i prognoza opadów na teraz dla 53.5°N 50.15°E

Mżawka
Lekki
Umiarkowane
Ulewne
Bardzo ciężkie
Grad

Wskaźnik lokalizacji jest umieszczony na 53.5°N 50.15°E. Animacja przedstawia radar opadów dla ostatniej godziny, jak również 1h prognozę pogody. Mżawka lub lekki opad śniegu może być niewidoczny dla radaru. Intensywność opadów jest oznaczona kolorami, od jasnoniebieskiego do pomarańczowego.